Location: Bacharowice
(49.9333°N, 19.5833°E)
Time: 07:30:51
(UTC+00:00)

Okean 1 - Pass Details

Date: 11 May 2021
Orbit: 538 x 554 km, 82.5° (Epoch: 21 June)

Event Time Altitude Azimuth Distance (km) Brightness Sun altitude
Exits shadow 20:54:05 30° 104° (ESE) 999 4.3 -18.2°
Maximum altitude 20:54:31 31° 91° (E) 982 4.3 -18.2°
Drops below altitude 10° 20:58:04 10° 29° (NNE) 1,826 6.4 -18.5°
Sets 21:00:24 0° 19° (NNE) 2,721 7.6 -18.6°
